Location: Ferques
(50.8300°N, 1.7599°E)
Time: 05:35:19
(UTC+00:00)

Cosmos 1470 - Pass Details

Date: 19 May 2025
Orbit: 455 x 466 km, 82.5° (Epoch: 13 June)

Event Time Altitude Azimuth Distance (km) Brightness Sun altitude
Rises 22:58:01 0° 352° (N) 2,523 7.9 -18.3°
Reaches altitude 10° 23:00:09 10° 357° (N) 1,643 6.5 -18.4°
Maximum altitude 23:03:41 59° 77° (ENE) 553 2.7 -18.5°
Enters shadow 23:04:24 47° 126° (SE) 632 2.8 -18.5°
